SCP
0 0 0 0 0 0 0 0 0 0 0 0 0 0 0 0 0 0 0 0 0 0 0 0 0 0 0 0 0 0 0 0 0 0 0 0 0 0 0 -0 0 0 0 0 -0
0 0 0 0 0 0 0 0 0 0 0 0 0 0 0 0 0 0 0 0 0 0 0 0 0 0 0 0 0 0 0 0 0 0 0 0 0 0 0 0 0 0 0 0 -0
0 0 0 0 0 0 0 0 0 0 0 0 0 0 0 0 0 0 -0 0 0 0 0 0 0 0 0 0 0 0 0 0 0 0 0 0 0 0 0 0 0 0 0 0 0
0 0 0 0 0 0 0 0 0 0 0 0 0 0 0 0 0 0 0 0 0 0 0 0 0 0 0 0 0 0 0 0 0 0 0 0 0 0 0 0 0 0 0 0 -0
0 0 0 0 0 0 0 0 0 0 0 0 0 0 0 0 0 0 0 0 0 0 0 0 0 0 0 0 0 0 0 0 0 0 0 0 0 0 0 0 0 0 0 0 0
0 0 0 0 0 0 0 0 0 0 0 0 0 0 0 0 0 0 0 0 0 0 0 0 0 0 0 0 0 0 0 0 0 0 0 0 0 0 0 0 0 0 0 0 0
0 0 0 0 0 0 0 0 0 0 0 0 0 0 0 0 0 0 0 0 0 0 0 0 0 0 0 0 0 0 0 0 0 0 0 0 0 0 0 0 0 0 0 0 0
0 0 0 0 0 0 0 0 0 0 0 0 0 0 0 0 0 0 0 0 0 0 0 0 0 0 0 0 0 0 0 0 0 0 0 0 0 0 0 0 0 0 0 0 0
0 0 0 0 0 0 0 0 0 0 0 0 0 0 0 0 0 0 0 0 0 0 0 0 0 0 0 0 0 0 0 0 0 0 0 0 0 0 0 0 0 0 0 0 0
0 0 0 0 0 0 0 0 0 0 0 0 0 0 0 0 0 0 0 0 0 0 0 0 0 0 0 0 0 0 0 0 0 0 0 0 0 0 0 0 0 0 0 0 0
0 0 0 0 0 0 0 0 0 0 0 0 0 0 0 0 0 0 0 0 0 0 0 0 0 0 0 0 0 0 0 0 0 0 0 0 0 0 0 0 0 0 0 0 0
0 0 0 0 0 0 0 0 0 0 0 0 0 0 0 0 0 0 0 0 0 0 0 0 0 0 0 0 0 0 0 0 0 0 0 0 0 0 0 0 0 0 0 0 0
0 0 0 0 0 0 0 0 0 0 0 0 0 0 0 0 0 0 0 0 0 0 0 0 0 0 0 0 0 0 0 0 0 0 0 0 0 0 0 0 0 0 0 0 0
0 0 0 0 0 0 0 0 0 0 0 0 0 0 0 0 0 0 0 0 0 0 0 0 0 0 0 0 0 0 0 0 0 0 0 0 0 0 0 0 0 0 0 0 0
0 0 0 0 0 0 0 0 0 0 0 0 0 0 0 0 0 0 0 0 0 0 0 0 0 0 0 0 0 0 0 0 0 0 0 0 0 0 0 0 0 0 0 0 0
0 0 0 0 0 0 0 0 0 0 0 0 0 0 0 0 0 0 0 0 0 0 0 0 0 0 0 0 0 0 0 0 0 0 0 0 0 0 0 0 0 0 0 0 0
0 0 0 0 0 0 0 0 0 0 0 0 0 0 0 0 0 0 0 0 0 0 0 0 0 0 0 0 0 0 0 0 0 0 0 0 0 0 0 0 0 0 0 0 0
0 0 0 0 0 0 0 0 0 0 0 0 0 0 0 0 0 0 0 0 0 0 0 0 0 0 0 0 0 0 0 0 0 0 0 0 0 0 0 0 0 0 0 0 0
0 0 0 0 0 0 0 0 0 0 0 0 0 0 0 0 0 0 0 0 0 0 0 0 0 0 0 0 0 0 0 0 0 0 0 0 0 0 0 0 0 0 0 0 0
0 0 0 0 0 0 0 0 0 0 0 0 0 0 0 0 0 0 0 0 0 0 0 0 0 0 0 0 0 0 0 0 0 0 0 0 0 0 0 0 0 0 0 0 0
0 0 0 0 0 0 0 0 0 0 0 0 0 0 0 0 0 0 0 0 0 0 0 0 0 0 0 0 0 0 0 0 0 0 0 0 0 0 0 0 0 0 0 0 0
0 0 0 0 0 0 0 0 0 0 0 0 0 0 -0 0 0 0 0 0 0 0 0 0 0 0 0 0 0 0 0 0 0 0 0 0 0 0 0 0 0 0 0 0 0
0 0 0 0 0 0 0 0 0 0 0 0 0 -0 0 0 0 0 0 0 0 0 0 0 0 0 0 0 0 0 0 0 0 0 0 0 0 0 0 0 0 0 0 0 0
0 0 0 0 0 0 0 0 0 0 0 0 0 -0 -0 0 0 0 0 0 0 0 0 0 0 0 0 0 0 0 0 0 0 0 0 0 0 0 0 0 0 0 0 0 0
0 0 0 0 0 0 0 0 0 0 0 0 0 0 -0 0 0 0 0 0 0 0 0 0 0 0 0 0 0 0 0 0 0 0 0 0 0 0 0 0 0 0 0 0 0
0 0 0 0 0 0 0 0 0 0 0 0 0 -0 -0 -0 0 0 0 0 0 0 0 0 0 0 0 0 0 0 0 0 0 0 0 0 0 0 0 0 0 0 0 0 0
0 0 0 0 0 0 0 0 0 0 0 0 -0 0 0 -0 0 0 0 0 0 0 0 0 0 0 0 0 0 0 0 0 0 0 0 0 0 0 0 0 0 0 0 0 0
Wind_Speed_500mb
63 61 60 54 46 43 44 41 37 33 31 31 33 35 36 40 43 45 51 54 41 38 33 28 23 17 7 7 6 2 7 5 6 3 6 18 10 4 2 12 12 11 5 5 21
46 60 65 62 61 56 45 45 43 38 32 29 30 30 31 35 40 53 57 44 40 35 33 29 27 18 6 4 5 5 6 13 7 2 3 12 6 9 3 5 5 6 6 9 27
52 46 54 59 64 62 56 48 43 43 38 33 28 27 25 26 32 56 47 43 39 36 32 25 18 12 9 11 10 8 11 8 8 4 9 9 13 11 1 5 6 5 9 15 28
56 56 51 50 57 62 71 59 50 42 44 37 31 26 24 22 13 8 7 26 47 45 38 29 18 11 10 10 17 6 16 14 6 5 8 8 12 16 13 9 4 10 10 15 27
66 63 53 54 45 55 58 71 60 50 43 44 36 30 32 28 40 6 7 14 36 55 50 41 32 25 11 10 12 6 7 14 23 17 18 22 20 19 22 25 21 11 10 15 24
51 56 67 58 52 50 48 52 62 58 49 43 43 38 44 37 35 38 14 7 18 51 55 49 26 31 16 10 13 5 12 13 10 16 16 11 16 16 6 23 20 19 18 15 26
66 71 66 55 67 53 52 44 49 53 56 46 46 48 59 57 24 24 35 17 17 32 56 52 28 25 13 4 29 11 6 9 12 14 12 3 13 32 31 32 38 31 29 29 31
67 62 62 73 64 68 54 46 43 47 52 52 43 56 53 46 57 39 44 24 19 21 37 39 48 22 8 4 5 9 1 2 7 24 16 16 25 13 15 24 34 47 47 48 44
65 64 60 55 63 60 58 57 48 46 45 49 48 56 32 46 68 52 41 42 19 21 34 31 33 15 13 7 3 4 6 11 14 20 10 17 13 15 18 36 48 50 54 43 43
66 65 64 63 57 52 57 48 55 43 45 45 57 19 36 42 62 66 57 43 34 24 23 26 18 9 13 19 21 15 11 12 13 11 16 17 23 21 44 47 53 49 45 46 48
65 67 70 70 65 58 50 41 36 30 54 52 13 26 8 29 46 53 57 51 47 41 21 29 13 41 53 34 11 15 11 14 7 9 5 15 28 31 48 39 48 57 57 63 61
66 64 63 63 65 58 54 61 58 15 19 76 64 33 34 35 28 45 62 52 34 29 21 12 43 28 17 20 15 10 16 11 7 7 4 13 33 26 28 45 47 48 53 58 55
68 64 65 62 61 57 64 71 57 58 16 40 78 56 23 46 26 55 74 67 34 32 41 41 19 37 25 25 32 35 28 11 4 1 5 11 29 29 17 43 48 45 47 40 39
69 74 66 60 57 64 68 69 60 40 14 18 35 59 72 32 20 37 82 70 19 50 35 28 42 28 32 34 34 40 30 11 11 7 11 12 23 16 7 17 17 47 44 38 41
65 69 66 68 58 58 69 61 45 39 25 21 27 40 68 31 29 55 58 60 40 19 23 29 17 25 31 36 30 18 16 28 13 13 9 14 6 9 5 14 12 30 37 43 48
68 73 71 68 72 74 58 36 54 17 16 14 32 36 36 68 14 41 49 56 36 24 41 46 21 30 22 20 34 14 11 8 8 11 17 43 18 40 16 11 9 24 46 51 56
70 71 77 76 72 71 51 52 19 30 9 11 21 34 58 48 58 20 38 39 31 18 29 41 14 4 21 15 12 12 15 8 13 18 29 19 15 43 7 6 10 25 51 52 56
63 72 79 81 80 60 60 20 32 30 26 6 17 38 59 49 41 56 30 38 48 33 16 30 26 31 12 18 16 40 28 10 18 11 16 10 20 28 1 26 44 53 56 57 50
63 67 79 80 79 72 62 29 17 7 12 16 14 29 47 51 22 50 44 34 47 33 30 29 33 17 9 12 35 23 34 22 8 4 5 10 14 16 17 16 26 25 29 34 15
61 78 69 80 73 72 28 44 10 6 5 29 32 33 34 54 34 54 54 41 33 48 19 5 13 9 36 21 29 24 18 18 16 17 18 9 8 19 4 13 6 9 14 20 27
67 27 47 71 72 55 27 19 17 13 12 12 15 24 22 30 56 34 43 29 45 40 42 4 3 5 28 32 38 14 19 11 7 13 12 6 15 13 20 16 11 14 24 28 30
40 10 38 74 25 12 19 14 28 12 21 6 7 14 19 25 40 49 50 53 71 51 52 38 6 9 34 34 44 45 45 46 16 21 14 5 19 5 13 13 34 28 29 27 20
33 13 47 81 24 15 9 4 9 7 12 16 15 14 15 7 25 49 37 49 55 54 41 35 16 10 6 4 9 36 38 35 31 5 21 16 15 7 17 12 22 34 28 20 13
29 9 18 50 36 12 12 13 14 21 9 10 9 30 21 36 28 27 35 7 43 61 70 56 40 23 32 22 15 30 41 40 40 25 32 29 33 8 10 16 17 27 29 23 16
23 12 14 10 26 17 17 18 23 9 15 33 8 29 19 19 37 26 30 20 23 49 45 40 42 46 30 14 20 38 48 48 43 50 36 46 35 28 27 20 32 35 32 27 25
24 12 12 6 28 27 26 17 27 23 16 15 23 36 30 33 24 35 27 20 23 27 45 40 20 33 38 24 14 22 39 49 52 51 45 38 28 25 35 43 33 38 42 32 19
33 22 23 17 23 26 26 31 35 14 11 32 43 10 25 42 23 40 41 22 18 11 40 33 26 18 43 43 5 18 42 45 44 59 51 37 54 13 17 18 36 41 39 34 23
Wind_Direction_500mb
248 249 247 249 254 250 251 256 257 258 261 261 259 257 259 258 258 258 255 256 257 255 255 256 255 265 292 263 290 353 61 178 228 145 296 358 10 34 123 152 182 196 215 250 191
261 254 253 250 246 249 251 252 254 255 257 260 260 262 262 263 264 257 251 253 254 254 252 253 257 262 236 256 245 130 130 216 220 152 35 347 9 334 314 173 189 210 244 214 196
259 257 252 252 249 245 247 250 250 250 252 255 260 264 260 267 276 267 268 252 244 246 242 242 247 228 203 213 222 195 178 217 244 288 26 336 317 335 166 252 206 255 282 213 202
257 259 260 253 250 247 244 247 250 248 244 246 249 253 247 247 233 221 210 213 218 222 222 219 207 182 202 202 216 200 221 218 205 234 326 315 321 304 260 240 246 301 297 242 217
256 253 253 252 255 249 248 247 248 246 245 240 240 238 229 222 229 213 191 207 207 204 206 202 194 195 183 210 226 220 234 224 239 280 286 279 273 259 264 260 281 290 289 256 241
252 253 251 254 255 253 251 245 246 244 243 239 234 231 226 238 250 230 244 200 221 208 202 200 211 201 217 213 179 229 204 258 279 282 281 240 268 270 213 241 249 280 291 266 248
251 252 255 258 253 256 255 256 248 243 240 239 232 229 231 231 243 241 217 199 203 218 206 203 199 185 203 241 230 260 316 308 227 222 249 213 278 241 244 254 270 273 275 266 260
251 250 251 248 250 251 251 254 252 246 238 235 236 226 236 244 244 241 222 189 176 202 217 212 204 216 193 257 5 155 134 237 266 195 230 163 260 263 241 259 264 267 268 260 267
251 249 249 251 248 248 250 250 252 246 239 232 236 228 236 229 234 233 220 211 182 199 210 214 211 216 206 119 18 332 179 220 291 205 173 194 252 252 239 244 257 259 267 266 271
249 248 247 250 252 249 244 246 245 246 237 232 233 249 226 208 222 226 212 208 198 189 186 189 182 191 188 185 205 187 186 226 209 222 210 229 248 263 257 270 269 264 264 271 280
250 247 244 244 246 246 241 231 226 239 228 214 215 225 342 203 203 214 204 191 188 192 189 184 181 209 205 202 200 162 194 196 221 244 192 237 257 258 270 267 264 265 267 262 264
248 244 241 238 238 235 235 223 220 226 232 230 230 235 238 184 182 202 191 182 187 196 146 180 222 207 148 193 210 198 212 214 270 265 175 293 273 265 260 264 253 261 269 268 267
246 242 239 237 233 226 224 228 221 229 258 228 227 232 215 190 194 194 191 186 187 193 198 203 216 190 181 190 204 222 214 178 170 319 277 22 288 267 243 255 261 258 261 261 253
247 239 233 227 227 221 221 228 219 227 244 222 202 225 219 202 219 193 202 181 179 205 194 222 231 189 187 204 193 221 222 144 173 121 233 148 270 216 227 239 239 241 234 238 247
245 234 228 218 216 210 220 222 215 215 232 192 197 211 210 199 157 199 210 199 195 176 168 212 157 181 202 209 181 223 159 201 184 220 33 243 266 272 221 240 235 247 248 252 261
244 229 223 219 218 223 209 202 198 222 236 189 166 174 170 201 215 180 189 199 203 199 202 216 192 183 198 177 187 130 82 86 148 175 233 236 195 270 225 203 215 250 257 262 267
236 227 218 216 212 210 202 187 212 221 127 186 184 178 186 191 206 200 186 190 187 197 189 212 199 221 160 154 158 170 126 163 210 209 230 186 175 242 263 331 216 262 268 268 277
237 222 218 216 213 202 192 208 224 209 207 194 186 189 193 190 206 200 202 185 214 199 180 187 204 202 182 200 177 196 192 182 205 198 235 149 223 234 141 233 254 261 269 275 277
225 218 212 209 202 206 192 214 222 172 184 191 192 202 197 204 187 199 212 200 189 190 199 199 214 190 186 170 169 188 209 200 98 123 75 211 284 300 258 246 251 273 277 272 291
221 204 200 203 203 201 211 220 197 192 165 216 214 198 200 198 205 192 197 198 196 200 218 222 208 192 183 162 211 179 148 191 207 209 227 244 250 230 246 246 253 268 125 94 115
191 178 208 208 202 201 216 220 202 234 166 191 235 239 227 194 206 202 204 199 197 192 207 153 246 206 157 205 192 168 194 208 187 196 204 231 248 202 223 216 176 164 103 112 107
180 180 189 197 193 197 213 154 188 189 201 172 250 289 216 218 204 207 210 207 192 179 204 203 185 198 209 204 205 202 205 199 200 221 223 205 245 219 231 199 158 137 128 123 115
176 161 179 186 199 182 141 176 162 141 184 175 218 207 322 253 225 207 204 207 185 195 197 189 201 181 165 28 173 213 213 213 219 62 194 209 244 188 136 136 153 149 152 148 152
162 161 174 198 212 156 134 187 190 202 211 184 233 217 244 269 248 211 212 193 195 203 200 189 216 228 225 226 147 196 211 209 208 220 221 220 245 142 153 149 164 168 168 153 147
167 206 195 173 195 177 180 168 191 172 201 205 210 226 211 248 217 217 222 210 188 201 201 203 216 214 227 253 189 195 207 212 209 218 215 229 223 223 190 195 192 190 183 176 182
154 145 143 128 175 177 181 204 193 206 174 200 224 202 203 212 267 200 173 202 202 195 202 203 240 210 232 236 210 216 212 216 216 222 226 239 237 225 207 190 204 193 184 172 162
169 158 158 147 158 176 202 205 210 161 258 241 216 212 196 224 195 296 195 173 137 176 201 200 212 197 227 222 197 238 217 214 217 223 214 218 230 125 196 197 182 181 170 159 155
Wind_Speed_850mb
63 61 60 54 46 43 44 41 37 33 31 31 33 35 36 40 43 45 51 54 41 38 33 28 23 17 7 7 6 2 7 5 6 3 6 18 10 4 2 12 12 11 5 5 21
46 60 65 62 61 56 45 45 43 38 32 29 30 30 31 35 40 53 57 44 40 35 33 29 27 18 6 4 5 5 6 13 7 2 3 12 6 9 3 5 5 6 6 9 27
52 46 54 59 64 62 56 48 43 43 38 33 28 27 25 26 32 56 47 43 39 36 32 25 18 12 9 11 10 8 11 8 8 4 9 9 13 11 1 5 6 5 9 15 28
56 56 51 50 57 62 71 59 50 42 44 37 31 26 24 22 13 8 7 26 47 45 38 29 18 11 10 10 17 6 16 14 6 5 8 8 12 16 13 9 4 10 10 15 27
66 63 53 54 45 55 58 71 60 50 43 44 36 30 32 28 40 6 7 14 36 55 50 41 32 25 11 10 12 6 7 14 23 17 18 22 20 19 22 25 21 11 10 15 24
51 56 67 58 52 50 48 52 62 58 49 43 43 38 44 37 35 38 14 7 18 51 55 49 26 31 16 10 13 5 12 13 10 16 16 11 16 16 6 23 20 19 18 15 26
66 71 66 55 67 53 52 44 49 53 56 46 46 48 59 57 24 24 35 17 17 32 56 52 28 25 13 4 29 11 6 9 12 14 12 3 13 32 31 32 38 31 29 29 31
67 62 62 73 64 68 54 46 43 47 52 52 43 56 53 46 57 39 44 24 19 21 37 39 48 22 8 4 5 9 1 2 7 24 16 16 25 13 15 24 34 47 47 48 44
65 64 60 55 63 60 58 57 48 46 45 49 48 56 32 46 68 52 41 42 19 21 34 31 33 15 13 7 3 4 6 11 14 20 10 17 13 15 18 36 48 50 54 43 43
66 65 64 63 57 52 57 48 55 43 45 45 57 19 36 42 62 66 57 43 34 24 23 26 18 9 13 19 21 15 11 12 13 11 16 17 23 21 44 47 53 49 45 46 48
65 67 70 70 65 58 50 41 36 30 54 52 13 26 8 29 46 53 57 51 47 41 21 29 13 41 53 34 11 15 11 14 7 9 5 15 28 31 48 39 48 57 57 63 61
66 64 63 63 65 58 54 61 58 15 19 76 64 33 34 35 28 45 62 52 34 29 21 12 43 28 17 20 15 10 16 11 7 7 4 13 33 26 28 45 47 48 53 58 55
68 64 65 62 61 57 64 71 57 58 16 40 78 56 23 46 26 55 74 67 34 32 41 41 19 37 25 25 32 35 28 11 4 1 5 11 29 29 17 43 48 45 47 40 39
69 74 66 60 57 64 68 69 60 40 14 18 35 59 72 32 20 37 82 70 19 50 35 28 42 28 32 34 34 40 30 11 11 7 11 12 23 16 7 17 17 47 44 38 41
65 69 66 68 58 58 69 61 45 39 25 21 27 40 68 31 29 55 58 60 40 19 23 29 17 25 31 36 30 18 16 28 13 13 9 14 6 9 5 14 12 30 37 43 48
68 73 71 68 72 74 58 36 54 17 16 14 32 36 36 68 14 41 49 56 36 24 41 46 21 30 22 20 34 14 11 8 8 11 17 43 18 40 16 11 9 24 46 51 56
70 71 77 76 72 71 51 52 19 30 9 11 21 34 58 48 58 20 38 39 31 18 29 41 14 4 21 15 12 12 15 8 13 18 29 19 15 43 7 6 10 25 51 52 56
63 72 79 81 80 60 60 20 32 30 26 6 17 38 59 49 41 56 30 38 48 33 16 30 26 31 12 18 16 40 28 10 18 11 16 10 20 28 1 26 44 53 56 57 50
63 67 79 80 79 72 62 29 17 7 12 16 14 29 47 51 22 50 44 34 47 33 30 29 33 17 9 12 35 23 34 22 8 4 5 10 14 16 17 16 26 25 29 34 15
61 78 69 80 73 72 28 44 10 6 5 29 32 33 34 54 34 54 54 41 33 48 19 5 13 9 36 21 29 24 18 18 16 17 18 9 8 19 4 13 6 9 14 20 27
67 27 47 71 72 55 27 19 17 13 12 12 15 24 22 30 56 34 43 29 45 40 42 4 3 5 28 32 38 14 19 11 7 13 12 6 15 13 20 16 11 14 24 28 30
40 10 38 74 25 12 19 14 28 12 21 6 7 14 19 25 40 49 50 53 71 51 52 38 6 9 34 34 44 45 45 46 16 21 14 5 19 5 13 13 34 28 29 27 20
33 13 47 81 24 15 9 4 9 7 12 16 15 14 15 7 25 49 37 49 55 54 41 35 16 10 6 4 9 36 38 35 31 5 21 16 15 7 17 12 22 34 28 20 13
29 9 18 50 36 12 12 13 14 21 9 10 9 30 21 36 28 27 35 7 43 61 70 56 40 23 32 22 15 30 41 40 40 25 32 29 33 8 10 16 17 27 29 23 16
23 12 14 10 26 17 17 18 23 9 15 33 8 29 19 19 37 26 30 20 23 49 45 40 42 46 30 14 20 38 48 48 43 50 36 46 35 28 27 20 32 35 32 27 25
24 12 12 6 28 27 26 17 27 23 16 15 23 36 30 33 24 35 27 20 23 27 45 40 20 33 38 24 14 22 39 49 52 51 45 38 28 25 35 43 33 38 42 32 19
33 22 23 17 23 26 26 31 35 14 11 32 43 10 25 42 23 40 41 22 18 11 40 33 26 18 43 43 5 18 42 45 44 59 51 37 54 13 17 18 36 41 39 34 23
Wind_Direction_850mb
248 249 247 249 254 250 251 256 257 258 261 261 259 257 259 258 258 258 255 256 257 255 255 256 255 265 292 263 290 353 61 178 228 145 296 358 10 34 123 152 182 196 215 250 191
261 254 253 250 246 249 251 252 254 255 257 260 260 262 262 263 264 257 251 253 254 254 252 253 257 262 236 256 245 130 130 216 220 152 35 347 9 334 314 173 189 210 244 214 196
259 257 252 252 249 245 247 250 250 250 252 255 260 264 260 267 276 267 268 252 244 246 242 242 247 228 203 213 222 195 178 217 244 288 26 336 317 335 166 252 206 255 282 213 202
257 259 260 253 250 247 244 247 250 248 244 246 249 253 247 247 233 221 210 213 218 222 222 219 207 182 202 202 216 200 221 218 205 234 326 315 321 304 260 240 246 301 297 242 217
256 253 253 252 255 249 248 247 248 246 245 240 240 238 229 222 229 213 191 207 207 204 206 202 194 195 183 210 226 220 234 224 239 280 286 279 273 259 264 260 281 290 289 256 241
252 253 251 254 255 253 251 245 246 244 243 239 234 231 226 238 250 230 244 200 221 208 202 200 211 201 217 213 179 229 204 258 279 282 281 240 268 270 213 241 249 280 291 266 248
251 252 255 258 253 256 255 256 248 243 240 239 232 229 231 231 243 241 217 199 203 218 206 203 199 185 203 241 230 260 316 308 227 222 249 213 278 241 244 254 270 273 275 266 260
251 250 251 248 250 251 251 254 252 246 238 235 236 226 236 244 244 241 222 189 176 202 217 212 204 216 193 257 5 155 134 237 266 195 230 163 260 263 241 259 264 267 268 260 267
251 249 249 251 248 248 250 250 252 246 239 232 236 228 236 229 234 233 220 211 182 199 210 214 211 216 206 119 18 332 179 220 291 205 173 194 252 252 239 244 257 259 267 266 271
249 248 247 250 252 249 244 246 245 246 237 232 233 249 226 208 222 226 212 208 198 189 186 189 182 191 188 185 205 187 186 226 209 222 210 229 248 263 257 270 269 264 264 271 280
250 247 244 244 246 246 241 231 226 239 228 214 215 225 342 203 203 214 204 191 188 192 189 184 181 209 205 202 200 162 194 196 221 244 192 237 257 258 270 267 264 265 267 262 264
248 244 241 238 238 235 235 223 220 226 232 230 230 235 238 184 182 202 191 182 187 196 146 180 222 207 148 193 210 198 212 214 270 265 175 293 273 265 260 264 253 261 269 268 267
246 242 239 237 233 226 224 228 221 229 258 228 227 232 215 190 194 194 191 186 187 193 198 203 216 190 181 190 204 222 214 178 170 319 277 22 288 267 243 255 261 258 261 261 253
247 239 233 227 227 221 221 228 219 227 244 222 202 225 219 202 219 193 202 181 179 205 194 222 231 189 187 204 193 221 222 144 173 121 233 148 270 216 227 239 239 241 234 238 247
245 234 228 218 216 210 220 222 215 215 232 192 197 211 210 199 157 199 210 199 195 176 168 212 157 181 202 209 181 223 159 201 184 220 33 243 266 272 221 240 235 247 248 252 261
244 229 223 219 218 223 209 202 198 222 236 189 166 174 170 201 215 180 189 199 203 199 202 216 192 183 198 177 187 130 82 86 148 175 233 236 195 270 225 203 215 250 257 262 267
236 227 218 216 212 210 202 187 212 221 127 186 184 178 186 191 206 200 186 190 187 197 189 212 199 221 160 154 158 170 126 163 210 209 230 186 175 242 263 331 216 262 268 268 277
237 222 218 216 213 202 192 208 224 209 207 194 186 189 193 190 206 200 202 185 214 199 180 187 204 202 182 200 177 196 192 182 205 198 235 149 223 234 141 233 254 261 269 275 277
225 218 212 209 202 206 192 214 222 172 184 191 192 202 197 204 187 199 212 200 189 190 199 199 214 190 186 170 169 188 209 200 98 123 75 211 284 300 258 246 251 273 277 272 291
221 204 200 203 203 201 211 220 197 192 165 216 214 198 200 198 205 192 197 198 196 200 218 222 208 192 183 162 211 179 148 191 207 209 227 244 250 230 246 246 253 268 125 94 115
191 178 208 208 202 201 216 220 202 234 166 191 235 239 227 194 206 202 204 199 197 192 207 153 246 206 157 205 192 168 194 208 187 196 204 231 248 202 223 216 176 164 103 112 107
180 180 189 197 193 197 213 154 188 189 201 172 250 289 216 218 204 207 210 207 192 179 204 203 185 198 209 204 205 202 205 199 200 221 223 205 245 219 231 199 158 137 128 123 115
176 161 179 186 199 182 141 176 162 141 184 175 218 207 322 253 225 207 204 207 185 195 197 189 201 181 165 28 173 213 213 213 219 62 194 209 244 188 136 136 153 149 152 148 152
162 161 174 198 212 156 134 187 190 202 211 184 233 217 244 269 248 211 212 193 195 203 200 189 216 228 225 226 147 196 211 209 208 220 221 220 245 142 153 149 164 168 168 153 147
167 206 195 173 195 177 180 168 191 172 201 205 210 226 211 248 217 217 222 210 188 201 201 203 216 214 227 253 189 195 207 212 209 218 215 229 223 223 190 195 192 190 183 176 182
154 145 143 128 175 177 181 204 193 206 174 200 224 202 203 212 267 200 173 202 202 195 202 203 240 210 232 236 210 216 212 216 216 222 226 239 237 225 207 190 204 193 184 172 162
169 158 158 147 158 176 202 205 210 161 258 241 216 212 196 224 195 296 195 173 137 176 201 200 212 197 227 222 197 238 217 214 217 223 214 218 230 125 196 197 182 181 170 159 155